Location: Moscow
(55.7500°N, 37.5830°E)
Time: 03:43:30
(UTC+03:00)

Kosmos-337 - Pass Details

Date: 12 July 2022
Orbit: 1467 x 1552 km, 74.0° (Epoch: 13 August)

Event Time Altitude Azimuth Distance (km) Brightness Sun altitude
Rises 22:31:13 0° 326° (NW) 4,737 ? -8.0°
Reaches altitude 10° 22:34:20 10° 331° (NNW) 3,750 ? -8.2°
Maximum altitude 22:43:20 54° 48° (NE) 1,825 ? -8.8°
Drops below altitude 10° 22:52:11 10° 125° (SE) 3,697 ? -9.3°
Enters shadow 22:53:30 - 127° (SE) 4,111 ? -9.4°
